This is the latest recevied weather packets stored in our database for station/object W4BOD. If no packets are shown the sender has not sent any weather packets the latest 10 day(s).
| Time | Temp. | Humidity | Pressure | Rain* | Wind** | Luminosity | Snow |
|---|---|---|---|---|---|---|---|
| 1777850354 | 20.56° C | 39% | 1015.6 hPa | 0 mm | - | 50 W/m² | - |
| 1777850051 | 20.56° C | 40% | 1015.7 hPa | 0 mm | - | 93 W/m² | - |
| 1777849748 | 20.56° C | 39% | 1015.7 hPa | 0 mm | - | 104 W/m² | - |
| 1777849444 | 20.56° C | 39% | 1016 hPa | 0 mm | - | 118 W/m² | - |
| 1777849142 | 20.56° C | 38% | 1016.1 hPa | 0 mm | - | 131 W/m² | - |
| 1777848838 | 20.56° C | 38% | 1016.1 hPa | 0 mm | - | 145 W/m² | - |
| 1777848534 | 21.11° C | 39% | 1016 hPa | 0 mm | - | 160 W/m² | - |
| 1777848231 | 21.11° C | 40% | 1016.3 hPa | 0 mm | - | 176 W/m² | - |
| 1777847929 | 21.11° C | 38% | 1016.1 hPa | 0 mm | - | 193 W/m² | - |
| 1777847627 | 21.11° C | 37% | 1016.2 hPa | 0 mm | - | 210 W/m² | - |
| 1777847322 | 20.56° C | 37% | 1016.2 hPa | 0 mm | - | 226 W/m² | - |
| 1777847021 | 21.11° C | 38% | 1016.2 hPa | 0 mm | - | 243 W/m² | - |
| 1777846718 | 20.56° C | 38% | 1016.3 hPa | 0 mm | - | 261 W/m² | - |
| 1777846417 | 21.11° C | 37% | 1016.4 hPa | 0 mm | - | 278 W/m² | - |
| 1777846112 | 21.11° C | 37% | 1016.3 hPa | 0 mm | - | 295 W/m² | - |
| 1777845810 | 21.11° C | 36% | 1016.7 hPa | 0 mm | - | 313 W/m² | - |
| 1777845506 | 21.11° C | 38% | 1016.6 hPa | 0 mm | - | 332 W/m² | - |
| 1777845204 | 21.11° C | 37% | 1016.3 hPa | 0 mm | - | 350 W/m² | - |
| 1777844901 | 21.11° C | 38% | 1016.7 hPa | 0 mm | - | 367 W/m² | - |
| 1777844598 | 21.11° C | 37% | 1016.8 hPa | 0 mm | - | 388 W/m² | - |
| 1777844296 | 21.11° C | 41% | 1016.8 hPa | 0 mm | - | 405 W/m² | - |
| 1777843994 | 21.11° C | 38% | 1017 hPa | 0 mm | - | 422 W/m² | - |
| 1777843690 | 21.11° C | 39% | 1016.9 hPa | 0 mm | - | 166 W/m² | - |
| 1777843388 | 20.56° C | 39% | 1017.3 hPa | 0 mm | - | 69 W/m² | - |
| 1777843085 | 21.11° C | 37% | 1017.3 hPa | 0 mm | - | 69 W/m² | - |
* Rain latest hour (hover to see other rain measurements)
** Current wind speed in m/s (hover to see current wind gust speed)